Powrót do katalogu

USA 355

AktywnyMilitariaVLEO
NORAD 59815·PAYLOAD·🇺🇸 United States

Wystrzelony May 22, 2024 z Vandenberg Space Force Base

Loading…

Następne Przeloty (najbliższe 24 godziny)

TLE

NieaktualneSource: Mike McCants

Epoka: Aug 23, 2026, 20:57 UTC

1 59815U 24096B   26235.87341122 0.00000000  00000-0  00000-0 0    08
2 59815  70.0200 157.1811 0003000  97.7021 262.2979 14.96712645    04

Śledź USA 355 w czasie rzeczywistym z AllMySat

Download on the App Store